Content
SEND FEEDBACK

Canada Flag

MONTREAL, QUEBEC


Home > North America > Canada > Quebec
Elevation: 35 meters     Latitude: 45 28N     Longitude: 073 45W

WEATHER
 
SELECT A DAY
Number of Records: 218,660;   Date Range: 1/1/95 - 3/22/16
 
SHARE

PRINT THIS DATA

[ ← Previous Day ]
WEATHER ALMANAC - 17 FEBRUARY, 2013
[ Next Day → ]
[ °F ]   °C
Weather ElementAverageHighLow
Temperature-11.9 °C-8 °C (3:00 pm) (10:00 pm)
Dewpoint-17.9 °C-16 °C (1:00 am)-20 °C (11:00 am)
Humidity59.4 %73 % (1:00 am)40 % (1:00 pm)
Barometer975.3 hPa1014.9 hPa (1:00 am) (7:00 pm)
Wind Speed21.1 km/h42.6 km/h (4:00 pm)
Wind Gust51.8 km/h (4:00 pm)
Weather ElementAverage
Visibility32.3 km
Wind DirectionWNW (301.4 °)

Weather ElementTotal
Precipitation---
Heating Degree Days31.2 (Base 18.3)
Averaged from 28 records on 17 February, 2013
WEATHER CONDITIONS BREAKOUT
WIND DIRECTION BREAKOUT
WEATHER BY HOUR - 17 FEBRUARY, 2013
[ °F ]   °C
Local TimeTemperatureDewpointHumidityBarometerVisibilityWind DirectionWind SpeedGust SpeedPrecipitationEventsConditions
1:00 AM-11.7 °C-16.1 °C57 %1014.9 hPa24.1 kmNNW (340°)9.3 km/hOvercast
1:00 AM-12 °C-16 °C73 %1014.6 hPa24.1 kmNNW (330°)9.3 km/hOvercast
2:00 AM-12 °C-16 °C73 %1014.2 hPa24.1 kmNNW (340°)11.1 km/hOvercast
3:00 AM-12 °C-17 °C67 %1013.5 hPa24.1 kmNNW (330°)13 km/hOvercast
4:00 AM-12 °C-17 °C67 %1013.5 hPa24.1 kmNNW (340°)11.1 km/hOvercast
5:00 AM-13 °C-18 °C67 %1013.9 hPa24.1 kmNorth (350°)14.8 km/hScattered Clouds
6:00 AM-13 °C-18 °C67 %1012.9 hPa24.1 kmNorth (360°)13 km/hPartly Cloudy
7:00 AM-14 °C-19 °C67 %1013.2 hPa24.1 kmNorth (350°)7.4 km/hPartly Cloudy
7:00 AM-13.9 °C-18.3 °C55 %1013.5 hPa24.1 kmNNW (340°)7.4 km/hClear
8:00 AM-14 °C-19 °C67 %1012.9 hPa64.4 kmNW (320°)14.8 km/hMostly Cloudy
9:00 AM-14 °C-19 °C67 %1011.9 hPa24.1 kmNW (320°)14.8 km/hMostly Cloudy
10:00 AM-13 °C-18 °C67 %1011.2 hPa24.1 kmWNW (290°)14.8 km/hMostly Cloudy
11:00 AM-12 °C-20 °C52 %1010.5 hPa24.1 kmNNW (340°)11.1 km/hOvercast
12:00 PM-11 °C-18 °C57 %1009.5 hPa48.3 kmWest (260°)14.8 km/hOvercast
1:00 PM-11 °C-18 °C57 %1008.8 hPa48.3 kmWSW (250°)20.4 km/hOvercast
1:00 PM-11.1 °C-18.3 °C40 %1008.8 hPa45.1 kmWest (260°)20.4 km/hOvercast
2:00 PM-9 °C-17 °C53 %1008.5 hPa48.3 kmWest (260°)29.6 km/hOvercast
3:00 PM-8 °C-17 °C49 %1007.8 hPa48.3 kmWest (280°)35.2 km/hOvercast
4:00 PM-9 °C-18 °C49 %1007.8 hPa48.3 kmWest (280°)42.6 km/h51.8 km/hOvercast
5:00 PM-10 °C-17 °C57 %1008.5 hPa48.3 kmWest (280°)27.8 km/h48.1 km/hMostly Cloudy
6:00 PM-10 °C-18 °C53 %1009.5 hPa48.3 kmWNW (290°)33.3 km/h50.1 km/hMostly Cloudy
7:00 PM-11 °C-18 °C57 %1010.2 hPa24.1 kmWest (280°)29.6 km/h40.7 km/hPartly Cloudy
7:00 PM-11.1 °C-18.3 °C42 %1010.2 hPa24.1 kmWest (280°)31.5 km/hClear
8:00 PM-11 °C-18 °C57 %1010.5 hPa24.1 kmWest (270°)27.8 km/h38.9 km/hPartly Cloudy
9:00 PM-12 °C-18 °C62 %1010.8 hPa24.1 kmWest (270°)29.6 km/h44.4 km/hPartly Cloudy
10:00 PM-17.8 °C-17.8 °C24.1 kmWest (270°)33.3 km/hPartly Cloudy
10:29 PM-13 °C-19 °C62 %1011.9 hPa24.1 kmWest (280°)33.3 km/h46.3 km/hPartly Cloudy
11:00 PM-13 °C-19 °C62 %1012.9 hPa24.1 kmWest (280°)27.8 km/h42.6 km/hScattered Clouds
Hourly data recorded from CYUL, located 0 kilometers away from Montreal, Quebec




STORIES FROM OUR PARTNERS